Location: Unnamed
(23.5608°S, 46.6833°W)
Time: 03:53:06
(UTC-03:00)

Hubble Space Telescope - Visible Passes

Search period start: 19 May 2024 00:00
Search period end: 29 May 2024 00:00
Orbit: 512 x 516 km, 28.5° (Epoch: 18 May)

Date Brightness Start Highest point End Pass type
(mag) Time Alt. Az. Time Alt. Az. Time Alt. Az.
19 May 3.5 18:37:37 10° WNW 18:39:42 14° NNW 18:41:47 10° N visible
20 May 3.7 18:19:38 10° NW 18:20:58 11° NNW 18:22:18 10° N visible
27 May 2.7 06:02:26 10° NNW 06:05:52 28° NNE 06:09:19 10° E visible
28 May 2.3 05:43:24 10° NW 05:47:00 32° NNE 05:50:37 10° E visible
